Starlink 2404

operational
NORAD ID: 48093 Int'l Des: 2021-027 Owner: SPXS Country: US Constellation: starlink
LEOCIRCULARSTARLINK_TYPE

关于 Starlink 2404

正在加载描述...

实时位置

正在加载3D地球...

即将过境

高度历史

Altitude vs Time

uPlot chart will show altitude changes over time

两行轨道根数

1 48093U 21027B 25350.81603662 .00001010 00000-0 86721-4 0 9993
2 48093 53.0541 173.8530 0001398 91.0711 269.0438 15.06395206260064
Epoch: Dec 16, 2025 • Age: 11 hours

当前状态

高度 548.9 km
速度 7.59 km/s
星下点 33.34°N, 11.22°E
发射日期 Apr 7, 2021
运行时间 4.6 years
类型 internet

技术详情

分类 Payload
质量 260.00 kg
干质量 248.00 kg
总质量 260.00 kg
长度 0.20 m
直径 2.80 m
跨度 9.00 m
形状 Box + pan
制造商 SPXS
平台类型 Starlink
阶段状态 In Orbit
所有者/国家 SPXS/US

大型星座

Loading constellations...